TimeEDT,TemperatureF,Dew PointF,Humidity,Sea Level PressureIn,VisibilityMPH,Wind Direction,Wind SpeedMPH,Gust SpeedMPH,PrecipitationIn,Events,Conditions,WindDirDegrees,DateUTC
12:15 AM,59.0,57.2,94,29.92,7.0,Calm,Calm,-,0.01,,Overcast,0,2012-09-30 04:15:00
12:35 AM,59.0,57.2,94,29.92,7.0,Calm,Calm,-,0.01,,Mostly Cloudy,0,2012-09-30 04:35:00
12:55 AM,59.0,57.2,94,29.93,7.0,West,3.5,-,N/A,Rain,Light Rain,270,2012-09-30 04:55:00
1:15 AM,59.0,57.2,94,29.94,4.0,SW,3.5,-,0.02,Rain,Light Rain,230,2012-09-30 05:15:00
1:55 AM,57.2,57.2,100,29.91,7.0,Calm,Calm,-,N/A,Rain,Light Rain,0,2012-09-30 05:55:00
2:15 AM,57.2,57.2,100,29.90,5.0,Calm,Calm,-,N/A,,Mostly Cloudy,0,2012-09-30 06:15:00
2:35 AM,57.2,57.2,100,29.90,4.0,Calm,Calm,-,N/A,,Overcast,0,2012-09-30 06:35:00
2:55 AM,57.2,57.2,100,29.90,4.0,Calm,Calm,-,N/A,,Overcast,0,2012-09-30 06:55:00
3:15 AM,57.2,57.2,100,29.91,4.0,Calm,Calm,-,N/A,,Overcast,0,2012-09-30 07:15:00
3:35 AM,57.2,57.2,100,29.91,5.0,Calm,Calm,-,N/A,,Overcast,0,2012-09-30 07:35:00
3:55 AM,57.2,57.2,100,29.91,5.0,Calm,Calm,-,N/A,,Overcast,0,2012-09-30 07:55:00
4:15 AM,57.2,57.2,100,29.91,5.0,Calm,Calm,-,N/A,,Overcast,0,2012-09-30 08:15:00
4:35 AM,57.2,57.2,100,29.90,4.0,Calm,Calm,-,N/A,,Mostly Cloudy,0,2012-09-30 08:35:00
5:15 AM,57.2,55.4,94,29.90,3.0,Calm,Calm,-,N/A,,Overcast,0,2012-09-30 09:15:00
11:35 AM,69.8,55.4,60,29.91,10.0,Calm,Calm,-,N/A,,Clear,0,2012-09-30 15:35:00
11:55 AM,71.6,55.4,57,29.90,10.0,Calm,Calm,-,N/A,,Clear,0,2012-09-30 15:55:00
4:35 PM,71.6,55.4,57,29.85,10.0,Calm,Calm,-,N/A,,Clear,0,2012-09-30 20:35:00
9:15 PM,60.8,57.2,88,29.91,7.0,Calm,Calm,-,N/A,,Clear,0,2012-10-01 01:15:00
10:15 PM,60.8,57.2,88,29.91,10.0,Calm,Calm,-,N/A,,Clear,0,2012-10-01 02:15:00
11:15 PM,60.8,59.0,94,29.90,7.0,Calm,Calm,-,N/A,,Clear,0,2012-10-01 03:15:00